TimeEDT,TemperatureF,Dew PointF,Humidity,Sea Level PressureIn,VisibilityMPH,Wind Direction,Wind SpeedMPH,Gust SpeedMPH,PrecipitationIn,Events,Conditions,WindDirDegrees,DateUTC
12:53 AM,78.1,73.9,87,30.05,10.0,Calm,Calm,-,N/A,,Clear,0,2013-09-05 04:53:00
1:53 AM,78.1,73.9,87,30.04,10.0,Calm,Calm,-,N/A,,Clear,0,2013-09-05 05:53:00
2:12 AM,77.0,73.4,89,30.04,10.0,Calm,Calm,-,N/A,,Partly Cloudy,0,2013-09-05 06:12:00
2:53 AM,77.0,73.9,90,30.04,10.0,Calm,Calm,-,N/A,,Clear,0,2013-09-05 06:53:00
3:53 AM,75.9,73.0,91,30.05,10.0,Calm,Calm,-,N/A,,Clear,0,2013-09-05 07:53:00
4:15 AM,77.0,73.4,89,30.05,10.0,Calm,Calm,-,N/A,,Partly Cloudy,0,2013-09-05 08:15:00
4:53 AM,75.9,73.0,91,30.05,10.0,East,3.5,-,N/A,,Clear,80,2013-09-05 08:53:00
5:53 AM,77.0,73.9,90,30.06,10.0,Calm,Calm,-,N/A,,Clear,0,2013-09-05 09:53:00
6:09 AM,75.2,73.4,94,30.06,10.0,ENE,3.5,-,N/A,,Partly Cloudy,70,2013-09-05 10:09:00
6:53 AM,75.9,73.9,94,30.07,10.0,Calm,Calm,-,N/A,,Clear,0,2013-09-05 10:53:00
7:53 AM,75.9,73.0,91,30.09,10.0,Calm,Calm,-,N/A,,Clear,0,2013-09-05 11:53:00
8:53 AM,82.0,75.9,82,30.10,10.0,Calm,Calm,-,N/A,,Clear,0,2013-09-05 12:53:00
9:53 AM,84.9,75.9,74,30.10,10.0,ENE,4.6,-,N/A,,Clear,70,2013-09-05 13:53:00
10:53 AM,88.0,73.9,63,30.11,10.0,Variable,5.8,-,N/A,,Partly Cloudy,0,2013-09-05 14:53:00
11:53 AM,89.1,73.0,59,30.12,10.0,ENE,3.5,-,N/A,,Clear,60,2013-09-05 15:53:00
12:53 PM,89.1,73.0,59,30.11,10.0,SSE,6.9,-,N/A,,Clear,160,2013-09-05 16:53:00
1:53 PM,89.1,73.9,61,30.09,10.0,SSE,11.5,-,N/A,,Clear,150,2013-09-05 17:53:00
2:53 PM,89.1,75.0,63,30.08,10.0,South,9.2,-,N/A,,Clear,180,2013-09-05 18:53:00
3:53 PM,87.1,75.0,67,30.06,10.0,South,4.6,-,N/A,,Clear,170,2013-09-05 19:53:00
4:53 PM,87.1,75.9,69,30.05,10.0,SSW,8.1,-,N/A,,Clear,200,2013-09-05 20:53:00
6:53 PM,86.0,73.9,67,30.03,10.0,SSW,4.6,-,N/A,,Clear,210,2013-09-05 22:53:00
7:53 PM,84.9,75.0,72,30.04,10.0,SW,4.6,-,N/A,,Clear,220,2013-09-05 23:53:00
8:53 PM,82.0,75.0,79,30.06,10.0,Calm,Calm,-,N/A,,Clear,0,2013-09-06 00:53:00
9:53 PM,80.1,75.0,85,30.07,10.0,Calm,Calm,-,N/A,,Clear,0,2013-09-06 01:53:00
10:53 PM,81.0,75.0,82,30.08,10.0,Calm,Calm,-,N/A,,Clear,0,2013-09-06 02:53:00
11:53 PM,78.1,73.9,87,30.08,10.0,Calm,Calm,-,N/A,,Clear,0,2013-09-06 03:53:00